CW0101 Weather Reports


time (UTC)temp
F
wind
direction
speed
knots
gust
knots
rain 1hr
in
rain 24hr
in
rain mn
in
humidity
%
barometer
mb
20260503051228 58 226 1.7 3.5 0.00 0.00 0.00 50 1010.3
20260503050724 59 257 2.6 7.0 0.00 0.00 0.00 50 1010.2
20260503050221 59 200 1.7 5.2 0.00 0.00 0.00 50 1010.4
20260503045719 59 235 2.6 7.0 0.00 0.00 0.00 49 1010.3
20260503045216 59 184 1.7 5.2 0.00 0.00 0.00 50 1009.9
20260503044712 58 239 3.5 7.8 0.00 0.00 0.00 49 1010.5
20260503044210 59 246 5.2 6.1 0.00 0.00 0.00 49 1010.6
20260503043706 59 277 2.6 5.2 0.00 0.00 0.00 48 1010.3
20260503043204 59 255 7.0 7.0 0.00 0.00 0.00 48 1010.7
20260503042700 59 266 2.6 6.1 0.00 0.00 0.00 48 1010.7
20260503042156 59 195 1.7 3.5 0.00 0.00 0.00 48 1010.7
20260503041652 58 200 0.9 3.5 0.00 0.00 0.00 48 1010.6
20260503041150 59 223 0.9 3.5 0.00 0.00 0.00 48 1010.8
20260503040648 58 221 1.7 2.6 0.00 0.00 0.00 48 1010.7
20260503040145 59 200 0.9 3.5 0.00 0.00 0.00 47 1010.8
20260503035641 59 188 0.0 4.3 0.00 0.00 0.00 47 1011.1
20260503035139 59 257 2.6 5.2 0.00 0.00 0.00 47 1010.7
20260503034637 58 268 1.7 3.5 0.00 0.00 0.00 47 1011.2
20260503034133 58 245 1.7 3.5 0.00 0.00 0.00 47 1011.3
20260503033630 58 263 0.0 3.5 0.00 0.00 0.00 48 1011.4
20260503033128 57 233 1.7 3.5 0.00 0.00 0.00 50 1011.3
20260503032626 57 176 1.7 1.7 0.00 0.00 0.00 49 1011.5
20260503032125 57 167 1.7 2.6 0.00 0.00 0.00 49 1011.7
20260503031622 57 237 1.7 4.3 0.00 0.00 0.00 49 1011.6
20260503031119 57 224 1.7 4.3 0.00 0.00 0.00 49 1011.5
20260503030615 57 247 2.6 4.3 0.00 0.00 0.00 49 1011.6
20260503030112 58 271 3.5 3.5 0.00 0.00 0.00 48 1011.7
20260503025609 58 200 0.0 2.6 0.00 0.00 0.00 48 1011.8
20260503025107 58 200 0.0 1.7 0.00 0.00 0.00 47 1011.6
20260503024603 58 215 0.0 2.6 0.00 0.00 0.00 47 1011.7
20260503024100 58 188 1.7 2.6 0.00 0.00 0.00 46 1011.9
20260503023557 58 219 1.7 1.7 0.00 0.00 0.00 46 1011.7
20260503023054 58 219 1.7 3.5 0.00 0.00 0.00 46 1011.9
20260503022550 58 188 0.9 2.6 0.00 0.00 0.00 45 1011.8
20260503022045 58 215 0.0 2.6 0.00 0.00 0.00 46 1011.8
20260503021542 58 228 1.7 2.6 0.00 0.00 0.00 45 1011.8
20260503021039 58 212 0.9 4.3 0.00 0.00 0.00 45 1011.9
20260503020536 58 200 0.9 2.6 0.00 0.00 0.00 46 1011.9
20260503020033 58 179 0.0 2.6 0.00 0.00 0.00 45 1011.8
20260503015529 58 219 1.7 2.6 0.00 0.00 0.00 45 1011.8
20260503015027 58 212 0.9 2.6 0.00 0.00 0.00 45 1011.8
20260503014522 58 174 1.7 2.6 0.00 0.00 0.00 45 1011.8
20260503014021 58 214 1.7 2.6 0.00 0.00 0.00 45 1011.7
20260503013518 58 221 1.7 3.5 0.00 0.00 0.00 45 1011.7
20260503013015 59 189 0.9 5.2 0.00 0.00 0.00 44 1011.7
20260503012513 59 210 2.6 2.6 0.00 0.00 0.00 45 1011.9
20260503012009 59 184 1.7 3.5 0.00 0.00 0.00 44 1011.9
20260503011506 59 205 0.9 2.6 0.00 0.00 0.00 44 1011.9
20260503011003 59 182 1.7 3.5 0.00 0.00 0.00 44 1011.7
20260503010459 59 185 3.5 3.5 0.00 0.00 0.00 43 1012.0
20260503005956 59 232 2.6 3.5 0.00 0.00 0.00 43 1012.1
20260503005453 60 203 2.6 4.3 0.00 0.00 0.00 42 1011.9
20260503004950 60 218 2.6 2.6 0.00 0.00 0.00 42 1011.9
20260503004447 60 181 0.0 2.6 0.00 0.00 0.00 41 1012.0
20260503003945 60 210 1.7 5.2 0.00 0.00 0.00 41 1012.0
20260503003441 61 194 2.6 2.6 0.00 0.00 0.00 40 1012.1
20260503002938 61 196 1.7 3.5 0.00 0.00 0.00 40 1012.2
20260503002435 61 216 0.0 4.3 0.00 0.00 0.00 40 1012.2
20260503001932 61 271 0.0 6.1 0.00 0.00 0.00 40 1012.2
20260503001428 61 225 3.5 4.3 0.00 0.00 0.00 39 1012.4
20260503000926 62 223 2.6 4.3 0.00 0.00 0.00 40 1012.3
20260503000423 61 236 2.6 5.2 0.00 0.00 0.00 39 1012.3
20260502235920 61 239 3.5 7.8 0.00 0.00 0.00 39 1012.3
20260502235417 61 259 3.5 9.6 0.00 0.00 0.00 39 1012.6
20260502234914 61 228 2.6 6.1 0.00 0.00 0.00 39 1012.5
20260502234411 61 261 5.2 11.3 0.00 0.00 0.00 39 1012.5
20260502233908 61 243 4.3 9.6 0.00 0.00 0.00 39 1012.6
20260502233403 61 235 5.2 9.6 0.00 0.00 0.00 38 1012.7
20260502232900 61 277 8.7 11.3 0.00 0.00 0.00 38 1012.9
20260502232357 62 257 4.3 6.1 0.00 0.00 0.00 39 1012.9
20260502231854 61 241 6.1 9.6 0.00 0.00 0.00 39 1013.0
20260502231351 61 205 2.6 10.4 0.00 0.00 0.00 39 1012.9
20260502230849 61 278 7.0 15.6 0.00 0.00 0.00 38 1013.0
20260502230347 62 265 9.6 10.4 0.00 0.00 0.00 38 1012.9
20260502225844 61 287 9.6 13.9 0.00 0.00 0.00 38 1013.1
20260502225340 61 282 5.2 13.0 0.00 0.00 0.00 38 1013.2
20260502224838 61 301 9.6 14.8 0.00 0.00 0.00 38 1013.0
20260502224334 62 269 10.4 14.8 0.00 0.00 0.00 37 1013.3
20260502223831 61 285 7.8 14.8 0.00 0.00 0.00 38 1013.2
20260502223323 63 257 5.2 14.8 0.00 0.00 0.00 37 1013.1
20260502222820 62 261 15.6 20.9 0.00 0.00 0.00 37 1013.4
20260502222318 62 258 6.1 10.4 0.00 0.00 0.00 37 1013.6
20260502221814 62 285 7.0 15.6 0.00 0.00 0.00 38 1013.4
20260502221310 62 257 6.1 11.3 0.00 0.00 0.00 37 1013.7
20260502220807 62 266 9.6 17.4 0.00 0.00 0.00 37 1013.4
20260502220303 62 253 4.3 16.5 0.00 0.00 0.00 37 1013.3
20260502215800 61 274 7.8 19.1 0.00 0.00 0.00 37 1013.6
20260502215257 60 305 8.7 15.6 0.00 0.00 0.00 37 1013.5
20260502214754 62 312 8.7 13.0 0.00 0.00 0.00 38 1013.7
20260502214250 62 297 7.0 13.0 0.00 0.00 0.00 37 1013.7
20260502213748 62 290 2.6 8.7 0.00 0.00 0.00 37 1013.7
20260502213245 62 298 6.1 16.5 0.00 0.00 0.00 37 1014.0
20260502212744 62 262 9.6 10.4 0.00 0.00 0.00 37 1014.2
20260502212242 62 257 7.0 12.2 0.00 0.00 0.00 36 1014.2
20260502211737 62 305 3.5 9.6 0.00 0.00 0.00 36 1014.3
20260502211234 61 310 7.8 14.8 0.00 0.00 0.00 36 1014.3
20260502210731 61 277 8.7 14.8 0.00 0.00 0.00 36 1014.2
20260502210229 61 261 5.2 8.7 0.00 0.00 0.00 36 1014.3
20260502205726 60 312 10.4 11.3 0.00 0.00 0.00 36 1014.3
20260502205216 61 310 13.9 15.6 0.00 0.00 0.00 35 1014.5
20260502204713 60 255 10.4 15.6 0.00 0.00 0.00 36 1014.4
20260502204211 62 278 4.3 13.0 0.00 0.00 0.00 35 1014.9
20260502203709 61 222 4.3 9.6 0.00 0.00 0.00 35 1014.7
20260502203207 62 236 7.0 9.6 0.00 0.00 0.00 35 1014.6
20260502202700 61 289 7.8 14.8 0.00 0.00 0.00 36 1014.9
20260502202159 60 284 8.7 17.4 0.00 0.00 0.00 36 1014.9
20260502201656 61 272 13.0 17.4 0.00 0.00 0.00 36 1015.1
20260502201152 61 245 3.5 11.3 0.00 0.00 0.00 35 1015.1
20260502200648 61 358 9.6 13.0 0.00 0.00 0.00 34 1015.0
20260502200144 61 252 7.0 14.8 0.00 0.00 0.00 34 1014.9
20260502195643 59 311 8.7 13.9 0.00 0.00 0.00 34 1015.1
20260502195139 60 241 9.6 17.4 0.00 0.00 0.00 34 1015.4
20260502194636 60 253 12.2 16.5 0.00 0.00 0.00 35 1015.6
20260502194133 60 315 9.6 14.8 0.00 0.00 0.00 35 1015.6
20260502193629 60 276 13.9 16.5 0.00 0.00 0.00 35 1015.6
20260502193126 59 268 7.8 13.9 0.00 0.00 0.00 36 1015.6
20260502192621 59 276 6.1 13.0 0.00 0.00 0.00 36 1015.7
20260502192119 60 272 9.6 13.0 0.00 0.00 0.00 35 1015.9
20260502191616 58 279 8.7 13.0 0.00 0.00 0.00 36 1015.8
20260502191113 59 302 3.5 9.6 0.00 0.00 0.00 37 1015.8
20260502190610 59 239 6.1 15.6 0.00 0.00 0.00 36 1016.0
20260502190108 59 247 7.8 13.0 0.00 0.00 0.00 36 1016.0
20260502185602 59 231 3.5 13.9 0.00 0.00 0.00 35 1016.3
20260502185059 59 290 2.6 11.3 0.00 0.00 0.00 35 1016.0
20260502184556 59 253 6.1 13.9 0.00 0.00 0.00 34 1016.3
20260502184051 58 311 8.7 13.9 0.00 0.00 0.00 35 1016.2
20260502183548 57 283 4.3 13.0 0.00 0.00 0.00 35 1016.4
20260502183044 58 327 12.2 23.5 0.00 0.00 0.00 35 1016.3
20260502182539 58 332 7.0 13.0 0.00 0.00 0.00 35 1016.8
20260502182036 57 297 12.2 21.7 0.00 0.00 0.00 35 1016.9
20260502181534 58 273 12.2 15.6 0.00 0.00 0.00 35 1016.7
20260502181032 57 318 6.1 12.2 0.00 0.00 0.00 35 1016.8
20260502180529 57 298 10.4 14.8 0.00 0.00 0.00 34 1016.9
20260502170447 57 280 4.3 13.9 0.00 0.00 0.00 36 1017.6
20260502163925 55 312 10.4 14.8 0.00 0.00 0.00 36 1018.0
20260502163422 56 303 12.2 20.9 0.00 0.00 0.00 37 1018.0
20260502162920 56 296 8.7 13.0 0.00 0.00 0.00 38 1017.7
20260502162416 55 252 4.3 16.5 0.00 0.00 0.00 40 1018.0
20260502161913 55 250 10.4 16.5 0.00 0.00 0.00 40 1018.1
20260502161409 55 339 7.8 13.0 0.00 0.00 0.00 41 1018.2
20260502160907 54 290 6.1 16.5 0.00 0.00 0.00 40 1018.2
20260502160405 55 340 8.7 13.9 0.00 0.00 0.00 38 1018.3
20260502151843 53 322 9.6 12.2 0.00 0.00 0.00 45 1018.5
20260502151340 53 264 3.5 7.8 0.00 0.00 0.00 49 1018.7
20260502150837 53 286 2.6 5.2 0.00 0.00 0.00 49 1018.5
20260502150334 52 242 2.6 7.8 0.00 0.00 0.00 52 1018.9
20260502130722 41 246 6.1 7.8 0.00 0.00 0.00 69 1019.3
20260502130220 41 245 2.6 7.8 0.00 0.00 0.00 68 1019.3
20260502123706 39 224 1.7 5.2 0.00 0.00 0.00 68 1019.5
20260502123202 39 260 2.6 4.3 0.00 0.00 0.00 68 1019.4
20260502122659 39 248 1.7 2.6 0.00 0.00 0.00 70 1019.4
20260502122155 39 241 1.7 3.5 0.00 0.00 0.00 70 1019.3
20260502121653 39 249 0.9 1.7 0.00 0.00 0.00 69 1019.3
20260502121151 39 214 0.9 1.7 0.00 0.00 0.00 70 1019.2
20260502120647 39 200 0.0 0.0 0.00 0.00 0.00 70 1019.4
20260502120144 39 200 0.0 1.7 0.00 0.00 0.00 71 1019.2
20260502115642 39 195 0.0 0.9 0.00 0.00 0.00 74 1019.3
20260502115137 38 185 0.0 1.7 0.00 0.00 0.00 74 1019.3
20260502114633 37 200 0.0 0.9 0.00 0.00 0.00 73 1019.1
20260502114131 37 193 0.0 1.7 0.00 0.00 0.00 74 1019.2
20260502113628 37 200 0.0 0.9 0.00 0.00 0.00 76 1019.1
20260502113127 36 140 0.0 0.9 0.00 0.00 0.00 78 1019.2
20260502112625 36 185 0.0 0.0 0.00 0.00 0.00 80 1019.3
20260502112122 34 186 0.0 1.7 0.00 0.00 0.00 81 1019.0
20260502111619 33 200 0.9 0.9 0.00 0.00 0.00 82 1018.9
20260502111116 33 193 0.0 0.9 0.00 0.00 0.00 83 1019.0
20260502110614 33 134 0.0 0.9 0.00 0.00 0.00 83 1019.0
20260502110111 33 253 0.0 2.6 0.00 0.00 0.00 84 1019.0
20260502105609 34 220 0.0 1.7 0.00 0.00 0.00 85 1019.1
20260502105106 34 200 0.0 2.6 0.00 0.00 0.00 85 1019.0
20260502104603 35 268 2.6 3.5 0.00 0.00 0.00 82 1019.2
20260502104100 35 240 0.0 1.7 0.00 0.00 0.00 78 1019.2
20260502103558 34 200 0.0 0.9 0.00 0.00 0.00 76 1019.2
20260502103056 34 164 0.9 1.7 0.00 0.00 0.00 76 1019.1
20260502102551 34 177 0.0 0.0 0.00 0.00 0.00 75 1019.1
20260502102049 34 131 0.9 1.7 0.00 0.00 0.00 75 1019.1
20260502101547 34 254 0.0 0.0 0.00 0.00 0.00 74 1019.0
20260502101045 34 134 0.0 0.9 0.00 0.00 0.00 74 1019.1
20260502100543 34 146 0.0 0.9 0.00 0.00 0.00 74 1019.2
20260502091518 34 101 1.7 2.6 0.00 0.00 0.00 76 1019.2
20260502091015 34 120 1.7 2.6 0.00 0.00 0.00 76 1019.3
20260502090512 34 114 1.7 2.6 0.00 0.00 0.00 77 1019.2
20260502071406 35 125 0.9 2.6 0.00 0.00 0.00 77 1019.5
20260502070905 35 122 1.7 2.6 0.00 0.00 0.00 77 1019.7
20260502070402 35 125 2.6 2.6 0.00 0.00 0.00 77 1019.6
20260502065901 35 119 1.7 2.6 0.00 0.00 0.00 76 1019.8
20260502065359 36 137 1.7 1.7 0.00 0.00 0.00 75 1019.8
20260502064856 37 121 2.6 2.6 0.00 0.00 0.00 74 1019.9
20260502064354 37 117 0.9 2.6 0.00 0.00 0.00 73 1019.9
20260502063850 37 101 1.7 1.7 0.00 0.00 0.00 73 1019.8
20260502063349 36 110 0.0 1.7 0.00 0.00 0.00 73 1019.9
20260502062845 36 110 0.9 1.7 0.00 0.00 0.00 74 1019.9
20260502062343 36 69 0.9 1.7 0.00 0.00 0.00 74 1019.9
20260502061842 36 152 1.7 2.6 0.00 0.00 0.00 74 1019.9
20260502061339 36 135 1.7 2.6 0.00 0.00 0.00 74 1019.8
20260502060835 36 129 1.7 2.6 0.00 0.00 0.00 74 1019.9
20260502060330 37 114 1.7 2.6 0.00 0.00 0.00 74 1020.0
20260502055828 37 110 0.9 2.6 0.00 0.00 0.00 73 1019.8
20260502055326 37 123 1.7 3.5 0.00 0.00 0.00 72 1019.9
20260502054825 37 134 1.7 2.6 0.00 0.00 0.00 72 1019.9
20260502054322 38 20 0.0 2.6 0.00 0.00 0.00 71 1019.9
20260502053819 38 147 1.7 1.7 0.00 0.00 0.00 71 1019.9
20260502053316 38 99 1.7 2.6 0.00 0.00 0.00 71 1019.7
20260502052814 38 140 1.7 2.6 0.00 0.00 0.00 70 1019.7
20260502052312 38 129 1.7 2.6 0.00 0.00 0.00 70 1019.5
20260502051810 38 116 1.7 2.6 0.00 0.00 0.00 69 1019.9